CFG3ML LEPA-EDDH

Flight info

Callsign CFG3ML
Flight time 2h 23m
Altitude 34000
Route MEROS N853 LUMAS DCT MAXIR DCT LUSOL DCT BODRU DCT OKTET DCT IRMAR DCT KINES DCT VANAS DCT ESOKO DCT GODRA/N0452F330 DCT LOKTA DCT TEDGO DCT HAREM DCT LOHRE DCT ELNAT/N0451F340 P605 NOLGO NOLGO3P
Aircraft A321/M-SDE3FGIJ1LORVWXYZ/LB1

Departure

Time 2026-04-23 08:50
Airport Palma de Mallorca Airport (LEPA)

Arrival

Time 2026-04-23 11:13
Airport Hamburg Helmut Schmidt Airport (EDDH)
Time Latitude Longitude Altitude Speed Heading
2026-04-23 08:07 39.54714 2.73660 38 ft 0 kts 59°
2026-04-23 08:40 39.54711 2.73653 37 ft 4 kts 49°
2026-04-23 08:41 39.54699 2.73630 38 ft 4 kts 70°
2026-04-23 08:41 39.54697 2.73599 38 ft 4 kts 116°
2026-04-23 08:41 39.54714 2.73574 38 ft 3 kts 148°
2026-04-23 08:41 39.54735 2.73558 38 ft 2 kts 149°
2026-04-23 08:42 39.54736 2.73558 38 ft 0 kts 149°
2026-04-23 08:44 39.54731 2.73561 38 ft 4 kts 149°
2026-04-23 08:44 39.54677 2.73603 38 ft 11 kts 151°
2026-04-23 08:45 39.54611 2.73632 38 ft 7 kts 159°
2026-04-23 08:45 39.54595 2.73641 37 ft 1 kts 154°
2026-04-23 08:45 39.54562 2.73640 36 ft 6 kts 206°
2026-04-23 08:45 39.54543 2.73614 38 ft 7 kts 232°
2026-04-23 08:46 39.54504 2.73530 38 ft 14 kts 240°
2026-04-23 08:46 39.54459 2.73428 37 ft 12 kts 240°
2026-04-23 08:46 39.54419 2.73343 38 ft 10 kts 239°
2026-04-23 08:46 39.54384 2.73267 38 ft 9 kts 238°
2026-04-23 08:47 39.54354 2.73205 38 ft 9 kts 238°
2026-04-23 08:47 39.54314 2.73124 37 ft 10 kts 237°
2026-04-23 08:47 39.54272 2.73058 38 ft 9 kts 212°
2026-04-23 08:47 39.54227 2.73069 38 ft 6 kts 132°
2026-04-23 08:48 39.54215 2.73116 38 ft 5 kts 98°
2026-04-23 08:48 39.54213 2.73208 38 ft 15 kts 90°
2026-04-23 08:48 39.54215 2.73335 38 ft 14 kts 81°
2026-04-23 08:48 39.54257 2.73439 37 ft 14 kts 59°
2026-04-23 08:49 39.54359 2.73659 38 ft 57 kts 59°
2026-04-23 08:49 39.54676 2.74339 39 ft 116 kts 59°
2026-04-23 08:49 39.55182 2.75409 42 ft 160 kts 59°
2026-04-23 08:49 39.55778 2.76659 558 ft 159 kts 59°
2026-04-23 08:50 39.56340 2.77895 1190 ft 159 kts 62°
2026-04-23 08:50 39.56907 2.79160 1503 ft 170 kts 60°
2026-04-23 08:50 39.57537 2.80550 1647 ft 187 kts 60°
2026-04-23 08:50 39.58227 2.82070 1828 ft 203 kts 60°
2026-04-23 08:51 39.58947 2.83654 2358 ft 204 kts 60°
2026-04-23 08:51 39.59674 2.85246 2909 ft 206 kts 60°
2026-04-23 08:51 39.60410 2.86857 3436 ft 209 kts 60°
2026-04-23 08:51 39.61155 2.88490 3928 ft 212 kts 60°
2026-04-23 08:52 39.61915 2.90152 4417 ft 216 kts 60°
2026-04-23 08:52 39.62684 2.91865 4780 ft 228 kts 61°
2026-04-23 08:52 39.63503 2.93748 4935 ft 251 kts 61°
2026-04-23 08:52 39.64387 2.95794 5317 ft 266 kts 61°
2026-04-23 08:53 39.65303 2.97909 5945 ft 271 kts 60°
2026-04-23 08:53 39.66193 2.99974 6525 ft 276 kts 61°
2026-04-23 08:53 39.67173 3.02247 7190 ft 281 kts 60°
2026-04-23 08:53 39.68133 3.04467 7869 ft 283 kts 60°
2026-04-23 08:54 39.69101 3.06701 8504 ft 286 kts 59°
2026-04-23 08:54 39.70079 3.08961 9081 ft 290 kts 59°
2026-04-23 08:54 39.71075 3.11263 9625 ft 294 kts 59°
2026-04-23 08:54 39.72088 3.13605 10136 ft 300 kts 59°
2026-04-23 08:55 39.73139 3.16025 10382 ft 317 kts 58°
2026-04-23 08:55 39.74251 3.18581 10514 ft 337 kts 58°
2026-04-23 08:55 39.75429 3.21313 10646 ft 357 kts 58°
2026-04-23 08:55 39.76669 3.24203 10854 ft 373 kts 58°
2026-04-23 08:56 39.78089 3.27039 11327 ft 376 kts 48°
2026-04-23 08:56 39.79800 3.29631 11887 ft 379 kts 45°
2026-04-23 08:56 39.81536 3.32240 12445 ft 383 kts 45°
2026-04-23 08:56 39.83285 3.34870 13019 ft 386 kts 45°
2026-04-23 08:57 39.85047 3.37514 13596 ft 388 kts 45°
2026-04-23 08:57 39.86823 3.40176 14153 ft 390 kts 45°
2026-04-23 08:57 39.88608 3.42857 14688 ft 393 kts 45°
2026-04-23 08:57 39.90403 3.45558 15220 ft 396 kts 45°
2026-04-23 08:58 39.92206 3.48275 15737 ft 398 kts 45°
2026-04-23 08:58 39.94021 3.51013 16231 ft 400 kts 45°
2026-04-23 08:58 39.95845 3.53767 16702 ft 403 kts 45°
2026-04-23 08:58 39.97680 3.56538 17177 ft 405 kts 45°
2026-04-23 08:59 39.99521 3.59322 17636 ft 407 kts 45°
2026-04-23 08:59 40.01375 3.62128 18101 ft 409 kts 45°
2026-04-23 08:59 40.03239 3.64951 18529 ft 412 kts 45°
2026-04-23 08:59 40.05113 3.67790 18942 ft 414 kts 45°
2026-04-23 09:00 40.07000 3.70649 19355 ft 417 kts 45°
2026-04-23 09:00 40.08899 3.73530 19769 ft 419 kts 45°
2026-04-23 09:00 40.10801 3.76421 20160 ft 421 kts 45°
2026-04-23 09:00 40.12716 3.79340 20534 ft 424 kts 45°
2026-04-23 09:01 40.14637 3.82273 20906 ft 426 kts 45°
2026-04-23 09:01 40.16569 3.85226 21283 ft 428 kts 45°
2026-04-23 09:01 40.18508 3.88192 21656 ft 431 kts 45°
2026-04-23 09:01 40.20461 3.91177 22020 ft 433 kts 45°
2026-04-23 09:02 40.22425 3.94175 22370 ft 435 kts 45°
2026-04-23 09:02 40.24402 3.97189 22712 ft 437 kts 45°
2026-04-23 09:02 40.26386 4.00223 23051 ft 440 kts 45°
2026-04-23 09:02 40.28376 4.03274 23396 ft 442 kts 45°
2026-04-23 09:03 40.30371 4.06345 23736 ft 444 kts 45°
2026-04-23 09:03 40.32376 4.09430 24038 ft 446 kts 45°
2026-04-23 09:03 40.34391 4.12534 24352 ft 448 kts 45°
2026-04-23 09:03 40.36415 4.15658 24662 ft 450 kts 45°
2026-04-23 09:04 40.38448 4.18791 24957 ft 452 kts 45°
2026-04-23 09:04 40.40490 4.21941 25250 ft 454 kts 45°
2026-04-23 09:04 40.42541 4.25109 25544 ft 456 kts 45°
2026-04-23 09:04 40.44597 4.28284 25835 ft 458 kts 45°
2026-04-23 09:05 40.46722 4.31395 26093 ft 456 kts 39°
2026-04-23 09:05 40.49149 4.34046 26353 ft 452 kts 30°
2026-04-23 09:05 40.51841 4.36122 26615 ft 447 kts 20°
2026-04-23 09:05 40.54719 4.37603 26871 ft 443 kts 12°
2026-04-23 09:06 40.57710 4.38495 27128 ft 440 kts
2026-04-23 09:06 40.60730 4.39214 27395 ft 442 kts
2026-04-23 09:06 40.63760 4.39941 27656 ft 443 kts
2026-04-23 09:06 40.66802 4.40674 27928 ft 445 kts
2026-04-23 09:07 40.69851 4.41405 28182 ft 446 kts
2026-04-23 09:07 40.72855 4.42123 28501 ft 444 kts
2026-04-23 09:07 40.75933 4.42865 28836 ft 444 kts
2026-04-23 09:07 40.78963 4.43603 29176 ft 442 kts
2026-04-23 09:08 40.81942 4.44330 29506 ft 440 kts
2026-04-23 09:08 40.84954 4.45060 29836 ft 439 kts
2026-04-23 09:08 40.87959 4.45781 30155 ft 438 kts
2026-04-23 09:08 40.90953 4.46495 30462 ft 437 kts
2026-04-23 09:09 40.93937 4.47211 30764 ft 436 kts
2026-04-23 09:09 40.96913 4.47927 31069 ft 435 kts
2026-04-23 09:09 40.99886 4.48645 31349 ft 434 kts
2026-04-23 09:09 41.02854 4.49367 31644 ft 433 kts
2026-04-23 09:10 41.05811 4.50091 31961 ft 431 kts
2026-04-23 09:10 41.11582 4.51502 32530 ft 429 kts
2026-04-23 09:10 41.14561 4.52232 32811 ft 428 kts
2026-04-23 09:11 41.17489 4.52949 33091 ft 427 kts
2026-04-23 09:11 41.20413 4.53662 33361 ft 426 kts
2026-04-23 09:11 41.23324 4.54370 33631 ft 425 kts
2026-04-23 09:11 41.26230 4.55081 33897 ft 424 kts
2026-04-23 09:12 41.29094 4.55783 34140 ft 424 kts
2026-04-23 09:12 41.34864 4.57198 34202 ft 420 kts
2026-04-23 09:13 41.40606 4.58598 34212 ft 419 kts
2026-04-23 09:13 41.46338 4.60000 34210 ft 419 kts
2026-04-23 09:14 41.52073 4.61412 34213 ft 418 kts
2026-04-23 09:14 41.57780 4.62821 34213 ft 417 kts
2026-04-23 09:15 41.63491 4.64235 34217 ft 417 kts
2026-04-23 09:15 41.69194 4.65649 34224 ft 416 kts
2026-04-23 09:16 41.74780 4.67917 34222 ft 428 kts 20°
2026-04-23 09:16 41.79896 4.71949 34228 ft 432 kts 24°
2026-04-23 09:17 41.85051 4.76092 34228 ft 432 kts 24°
2026-04-23 09:17 41.90208 4.80228 34231 ft 432 kts 24°
2026-04-23 09:18 41.95355 4.84383 34227 ft 432 kts 24°
2026-04-23 09:18 42.00504 4.88545 34245 ft 432 kts 24°
2026-04-23 09:19 42.05664 4.92733 34255 ft 431 kts 24°
2026-04-23 09:19 42.10792 4.96895 34265 ft 430 kts 24°
2026-04-23 09:20 42.15877 5.01016 34268 ft 429 kts 24°
2026-04-23 09:20 42.20987 5.05178 34272 ft 429 kts 24°
2026-04-23 09:21 42.26090 5.09352 34274 ft 429 kts 24°
2026-04-23 09:21 42.31188 5.13515 34277 ft 428 kts 24°
2026-04-23 09:22 42.36314 5.17713 34280 ft 427 kts 24°
2026-04-23 09:22 42.41359 5.21862 34278 ft 427 kts 24°
2026-04-23 09:23 42.46431 5.26030 34275 ft 426 kts 24°
2026-04-23 09:23 42.51502 5.30199 34272 ft 426 kts 24°
2026-04-23 09:24 42.56562 5.34381 34270 ft 426 kts 24°
2026-04-23 09:24 42.61627 5.38571 34270 ft 426 kts 24°
2026-04-23 09:25 42.66693 5.42760 34269 ft 426 kts 24°
2026-04-23 09:25 42.71752 5.46963 34272 ft 426 kts 24°
2026-04-23 09:26 42.76815 5.51173 34273 ft 426 kts 24°
2026-04-23 09:26 42.81866 5.55392 34270 ft 426 kts 24°
2026-04-23 09:27 42.86921 5.59615 34272 ft 426 kts 24°
2026-04-23 09:27 42.91977 5.63839 34275 ft 426 kts 24°
2026-04-23 09:28 42.97021 5.68071 34277 ft 426 kts 24°
2026-04-23 09:28 43.02073 5.72320 34277 ft 426 kts 24°
2026-04-23 09:29 43.06270 5.75850 34274 ft 426 kts 24°
2026-04-23 09:29 43.11317 5.80099 34271 ft 426 kts 24°
2026-04-23 09:30 43.16312 5.84318 34270 ft 426 kts 25°
2026-04-23 09:30 43.21358 5.88589 34271 ft 427 kts 25°
2026-04-23 09:31 43.26401 5.92867 34270 ft 426 kts 25°
2026-04-23 09:31 43.31479 5.97186 34265 ft 426 kts 25°
2026-04-23 09:32 43.36528 6.01447 34264 ft 424 kts 22°
2026-04-23 09:32 43.41961 6.04165 34263 ft 410 kts
2026-04-23 09:33 43.47558 6.04869 34263 ft 406 kts 359°
2026-04-23 09:33 43.53200 6.05431 34263 ft 407 kts 360°
2026-04-23 09:34 43.58843 6.06002 34259 ft 407 kts 360°
2026-04-23 09:34 43.64499 6.06577 34258 ft 407 kts 360°
2026-04-23 09:35 43.70149 6.07148 34265 ft 408 kts 360°
2026-04-23 09:35 43.75805 6.07866 34262 ft 411 kts
2026-04-23 09:36 43.81229 6.10621 34265 ft 422 kts 20°
2026-04-23 09:36 43.86493 6.14221 34262 ft 422 kts 20°
2026-04-23 09:37 43.91757 6.17799 34265 ft 422 kts 20°
2026-04-23 09:37 43.97023 6.21388 34263 ft 422 kts 20°
2026-04-23 09:38 44.02287 6.24996 34264 ft 422 kts 20°
2026-04-23 09:38 44.07551 6.28613 34258 ft 422 kts 20°
2026-04-23 09:39 44.12822 6.32238 34259 ft 423 kts 21°
2026-04-23 09:39 44.18091 6.35868 34263 ft 423 kts 21°
2026-04-23 09:40 44.23367 6.39513 34268 ft 424 kts 21°
2026-04-23 09:40 44.28654 6.43175 34273 ft 424 kts 21°
2026-04-23 09:41 44.33947 6.46838 34279 ft 425 kts 21°
2026-04-23 09:41 44.39251 6.50500 34284 ft 425 kts 22°
2026-04-23 09:42 44.44548 6.54184 34278 ft 425 kts 22°
2026-04-23 09:42 44.49847 6.57888 34284 ft 426 kts 22°
2026-04-23 09:43 44.55154 6.61593 34284 ft 427 kts 23°
2026-04-23 09:43 44.60469 6.65306 34282 ft 427 kts 23°
2026-04-23 09:44 44.65791 6.69037 34286 ft 428 kts 24°
2026-04-23 09:44 44.71110 6.72780 34293 ft 428 kts 24°
2026-04-23 09:45 44.76444 6.76515 34291 ft 427 kts 21°
2026-04-23 09:45 44.82128 6.78655 34291 ft 423 kts
2026-04-23 09:46 44.88008 6.78514 34286 ft 423 kts 357°
2026-04-23 09:46 44.93902 6.78112 34284 ft 425 kts 357°
2026-04-23 09:47 44.99810 6.77730 34285 ft 426 kts 358°
2026-04-23 09:47 45.05740 6.77367 34278 ft 426 kts 358°
2026-04-23 09:48 45.11675 6.76975 34280 ft 428 kts 358°
2026-04-23 09:48 45.17631 6.76581 34287 ft 429 kts 358°
2026-04-23 09:49 45.23598 6.76178 34286 ft 430 kts 358°
2026-04-23 09:49 45.29540 6.75772 34292 ft 431 kts 358°
2026-04-23 09:50 45.35523 6.75376 34294 ft 432 kts 358°
2026-04-23 09:50 45.41528 6.75026 34286 ft 432 kts
2026-04-23 09:51 45.47409 6.76552 34288 ft 431 kts 21°
2026-04-23 09:51 45.52710 6.80486 34286 ft 430 kts 30°
2026-04-23 09:52 45.57885 6.84784 34291 ft 431 kts 30°
2026-04-23 09:52 45.63074 6.89082 34297 ft 431 kts 31°
2026-04-23 09:53 45.68262 6.93396 34299 ft 431 kts 31°
2026-04-23 09:53 45.73442 6.97718 34296 ft 431 kts 31°
2026-04-23 09:54 45.78622 7.02054 34312 ft 431 kts 31°
2026-04-23 09:54 45.83800 7.06403 34307 ft 431 kts 32°
2026-04-23 09:55 45.88963 7.10741 34322 ft 431 kts 32°
2026-04-23 09:55 45.94139 7.15107 34315 ft 432 kts 32°
2026-04-23 09:56 45.99286 7.19462 34317 ft 431 kts 32°
2026-04-23 09:56 46.04452 7.23834 34307 ft 431 kts 34°
2026-04-23 09:57 46.09621 7.28215 34310 ft 431 kts 34°
2026-04-23 09:57 46.14786 7.32613 34315 ft 431 kts 34°
2026-04-23 09:58 46.19941 7.37013 34309 ft 430 kts 34°
2026-04-23 09:58 46.25090 7.41414 34312 ft 430 kts 34°
2026-04-23 09:59 46.30235 7.45812 34306 ft 430 kts 34°
2026-04-23 09:59 46.35383 7.50224 34311 ft 430 kts 34°
2026-04-23 10:00 46.40519 7.54647 34307 ft 429 kts 35°
2026-04-23 10:00 46.45646 7.59085 34297 ft 429 kts 35°
2026-04-23 10:01 46.50763 7.63523 34303 ft 429 kts 35°
2026-04-23 10:01 46.55894 7.67965 34307 ft 429 kts 35°
2026-04-23 10:02 46.61019 7.72422 34299 ft 429 kts 35°
2026-04-23 10:02 46.66083 7.76985 34301 ft 428 kts 36°
2026-04-23 10:03 46.71122 7.81598 34297 ft 427 kts 36°
2026-04-23 10:03 46.76162 7.86208 34317 ft 428 kts 36°
2026-04-23 10:04 46.81213 7.90809 34313 ft 428 kts 36°
2026-04-23 10:04 46.86267 7.95413 34317 ft 428 kts 36°
2026-04-23 10:05 46.91325 8.00048 34323 ft 429 kts 36°
2026-04-23 10:05 46.96363 8.04679 34334 ft 427 kts 36°
2026-04-23 10:06 47.01383 8.09302 34348 ft 426 kts 36°
2026-04-23 10:06 47.06401 8.13923 34360 ft 425 kts 36°
2026-04-23 10:07 47.11411 8.18537 34365 ft 425 kts 36°
2026-04-23 10:07 47.16416 8.23169 34368 ft 425 kts 36°
2026-04-23 10:08 47.21401 8.27800 34367 ft 424 kts 36°
2026-04-23 10:08 47.26384 8.32434 34366 ft 424 kts 36°
2026-04-23 10:09 47.33848 8.39390 34358 ft 423 kts 37°
2026-04-23 10:09 47.38811 8.44034 34356 ft 422 kts 37°
2026-04-23 10:10 47.42929 8.47905 34345 ft 422 kts 37°
2026-04-23 10:10 47.45393 8.50223 34232 ft 421 kts 37°
2026-04-23 10:10 47.47866 8.52545 34098 ft 421 kts 37°
2026-04-23 10:11 47.50336 8.54866 33974 ft 421 kts 37°
2026-04-23 10:11 47.52807 8.57191 33849 ft 421 kts 37°
2026-04-23 10:11 47.55276 8.59520 33723 ft 421 kts 37°
2026-04-23 10:11 47.57749 8.61855 33600 ft 421 kts 37°
2026-04-23 10:12 47.60220 8.64190 33452 ft 422 kts 37°
2026-04-23 10:12 47.62692 8.66527 33324 ft 421 kts 37°
2026-04-23 10:12 47.67626 8.71203 33358 ft 421 kts 37°
2026-04-23 10:13 47.72566 8.75888 33356 ft 421 kts 37°
2026-04-23 10:13 47.77498 8.80577 33357 ft 421 kts 37°
2026-04-23 10:14 47.82419 8.85283 33360 ft 421 kts 37°
2026-04-23 10:14 47.87337 8.90000 33358 ft 421 kts 37°
2026-04-23 10:15 47.92255 8.94713 33363 ft 420 kts 37°
2026-04-23 10:15 47.97168 8.99432 33363 ft 420 kts 37°
2026-04-23 10:16 48.02077 9.04156 33367 ft 420 kts 36°
2026-04-23 10:16 48.06973 9.08883 33371 ft 419 kts 36°
2026-04-23 10:17 48.11857 9.13615 33370 ft 418 kts 36°
2026-04-23 10:17 48.17005 9.17712 33367 ft 424 kts 22°
2026-04-23 10:18 48.22853 9.19325 33365 ft 431 kts 11°
2026-04-23 10:18 48.28749 9.20315 33364 ft 430 kts 11°
2026-04-23 10:19 48.34711 9.21326 33363 ft 431 kts 11°
2026-04-23 10:19 48.40666 9.22332 33361 ft 431 kts 11°
2026-04-23 10:20 48.46628 9.23342 33363 ft 431 kts 11°
2026-04-23 10:20 48.52585 9.24360 33364 ft 431 kts 11°
2026-04-23 10:21 48.58512 9.25364 33366 ft 431 kts 11°
2026-04-23 10:21 48.64519 9.26366 33372 ft 431 kts 11°
2026-04-23 10:22 48.70493 9.27280 33380 ft 432 kts 10°
2026-04-23 10:22 48.76468 9.28164 33383 ft 431 kts 11°
2026-04-23 10:23 48.82441 9.29077 33383 ft 431 kts 11°
2026-04-23 10:23 48.88414 9.29998 33380 ft 431 kts 11°
2026-04-23 10:24 48.94382 9.30915 33386 ft 431 kts 11°
2026-04-23 10:24 49.00354 9.31828 33389 ft 431 kts 10°
2026-04-23 10:25 49.06275 9.32735 33387 ft 430 kts 11°
2026-04-23 10:25 49.12190 9.33656 33391 ft 430 kts 11°
2026-04-23 10:26 49.18149 9.34599 33387 ft 431 kts 10°
2026-04-23 10:26 49.24150 9.35539 33391 ft 430 kts 10°
2026-04-23 10:27 49.30110 9.36470 33388 ft 430 kts 10°
2026-04-23 10:27 49.36064 9.37397 33395 ft 430 kts 10°
2026-04-23 10:28 49.42018 9.38324 33393 ft 430 kts 10°
2026-04-23 10:28 49.47968 9.39254 33391 ft 430 kts 10°
2026-04-23 10:29 49.53915 9.40188 33386 ft 429 kts 10°
2026-04-23 10:29 49.59849 9.41133 33390 ft 428 kts 10°
2026-04-23 10:30 49.65778 9.42080 33389 ft 428 kts 10°
2026-04-23 10:30 49.71543 9.42997 33383 ft 428 kts 10°
2026-04-23 10:31 49.77427 9.43936 33385 ft 427 kts 10°
2026-04-23 10:31 49.83346 9.44873 33381 ft 427 kts 10°
2026-04-23 10:32 49.89255 9.45816 33378 ft 427 kts 10°
2026-04-23 10:32 49.95160 9.46769 33380 ft 426 kts 11°
2026-04-23 10:33 50.01061 9.47727 33377 ft 426 kts 10°
2026-04-23 10:33 50.06958 9.48685 33374 ft 426 kts 10°
2026-04-23 10:34 50.12853 9.49678 33372 ft 426 kts 11°
2026-04-23 10:34 50.18741 9.50748 33372 ft 426 kts 11°
2026-04-23 10:35 50.24633 9.51812 33372 ft 426 kts 11°
2026-04-23 10:35 50.30532 9.52859 33375 ft 426 kts 11°
2026-04-23 10:36 50.36421 9.53901 33375 ft 426 kts 11°
2026-04-23 10:36 50.42312 9.54955 33374 ft 426 kts 11°
2026-04-23 10:37 50.48205 9.56012 33369 ft 426 kts 11°
2026-04-23 10:37 50.54096 9.57065 33366 ft 426 kts 11°
2026-04-23 10:38 50.59995 9.58102 33368 ft 426 kts 11°
2026-04-23 10:38 50.65888 9.59150 33367 ft 426 kts 11°
2026-04-23 10:39 50.71787 9.60227 33360 ft 427 kts 11°
2026-04-23 10:39 50.77690 9.61306 33365 ft 427 kts 11°
2026-04-23 10:40 50.83593 9.62374 33367 ft 427 kts 11°
2026-04-23 10:40 50.89497 9.63449 33370 ft 427 kts 11°
2026-04-23 10:41 50.95364 9.64512 33367 ft 427 kts 11°
2026-04-23 10:41 51.01262 9.65587 33366 ft 427 kts 11°
2026-04-23 10:42 51.07161 9.66665 33367 ft 427 kts 11°
2026-04-23 10:42 51.13064 9.67754 33466 ft 428 kts 11°
2026-04-23 10:43 51.16019 9.68303 33590 ft 428 kts 11°
2026-04-23 10:43 51.18978 9.68851 33714 ft 428 kts 11°
2026-04-23 10:43 51.21937 9.69390 33838 ft 428 kts 11°
2026-04-23 10:43 51.24902 9.69891 33967 ft 428 kts 10°
2026-04-23 10:44 51.27870 9.70364 34082 ft 428 kts 10°
2026-04-23 10:44 51.30835 9.70821 34212 ft 428 kts 10°
2026-04-23 10:44 51.33799 9.71278 34344 ft 428 kts 10°
2026-04-23 10:44 51.36766 9.71744 34378 ft 428 kts 10°
2026-04-23 10:45 51.42678 9.72705 34377 ft 427 kts 11°
2026-04-23 10:45 51.48582 9.73688 34375 ft 426 kts 11°
2026-04-23 10:46 51.54352 9.74754 34376 ft 426 kts 11°
2026-04-23 10:46 51.60234 9.75903 34377 ft 425 kts 12°
2026-04-23 10:47 51.66108 9.77042 34374 ft 425 kts 11°
2026-04-23 10:47 51.71977 9.78155 34373 ft 425 kts 11°
2026-04-23 10:48 51.77773 9.79255 34372 ft 424 kts 11°
2026-04-23 10:48 51.83640 9.80375 34372 ft 425 kts 11°
2026-04-23 10:49 51.89511 9.81495 34378 ft 424 kts 11°
2026-04-23 10:49 51.95371 9.82626 34379 ft 424 kts 11°
2026-04-23 10:50 52.01229 9.83773 34373 ft 423 kts 11°
2026-04-23 10:50 52.07077 9.84914 34370 ft 423 kts 11°
2026-04-23 10:51 52.12921 9.86045 34365 ft 423 kts 11°
2026-04-23 10:51 52.17782 9.86988 34360 ft 423 kts 11°
2026-04-23 10:52 52.24519 9.88339 34360 ft 422 kts 14°
2026-04-23 10:52 52.30165 9.90661 34357 ft 418 kts 19°
2026-04-23 10:53 52.34876 9.92741 34127 ft 417 kts 19°
2026-04-23 10:53 52.37657 9.93957 33923 ft 407 kts 19°
2026-04-23 10:53 52.40351 9.95131 33684 ft 397 kts 19°
2026-04-23 10:54 52.43042 9.96313 32629 ft 407 kts 19°
2026-04-23 10:54 52.45846 9.97562 31133 ft 428 kts 19°
2026-04-23 10:54 52.48754 9.98859 30153 ft 435 kts 18°
2026-04-23 10:54 52.51685 10.00161 29194 ft 439 kts 18°
2026-04-23 10:55 52.54649 10.01476 28341 ft 440 kts 17°
2026-04-23 10:55 52.57574 10.02770 27768 ft 434 kts 17°
2026-04-23 10:55 52.60482 10.04060 27102 ft 431 kts 17°
2026-04-23 10:55 52.63370 10.05346 26449 ft 428 kts 17°
2026-04-23 10:56 52.66225 10.06621 25812 ft 424 kts 17°
2026-04-23 10:56 52.69047 10.07890 25175 ft 420 kts 17°
2026-04-23 10:56 52.71851 10.09157 24551 ft 416 kts 17°
2026-04-23 10:56 52.74629 10.10413 23930 ft 412 kts 17°
2026-04-23 10:57 52.77403 10.11525 23324 ft 409 kts 11°
2026-04-23 10:57 52.80197 10.11892 22756 ft 407 kts
2026-04-23 10:57 52.82985 10.12224 22432 ft 393 kts 12°
2026-04-23 10:57 52.85566 10.13137 22348 ft 377 kts 13°
2026-04-23 10:58 52.88077 10.14026 21807 ft 372 kts 13°
2026-04-23 10:58 52.90647 10.14935 20892 ft 380 kts 13°
2026-04-23 10:58 52.93228 10.15853 20237 ft 379 kts 13°
2026-04-23 10:58 52.95799 10.16773 19650 ft 376 kts 13°
2026-04-23 10:59 52.98349 10.17685 19082 ft 373 kts 13°
2026-04-23 10:59 53.00872 10.18590 18511 ft 370 kts 12°
2026-04-23 10:59 53.03378 10.19488 17955 ft 367 kts 12°
2026-04-23 10:59 53.05858 10.20379 17439 ft 363 kts 12°
2026-04-23 11:00 53.08347 10.21279 16905 ft 360 kts 12°
2026-04-23 11:00 53.10752 10.22147 16376 ft 357 kts 12°
2026-04-23 11:00 53.13175 10.23022 15837 ft 355 kts 12°
2026-04-23 11:00 53.15580 10.23895 15315 ft 352 kts 12°
2026-04-23 11:01 53.17961 10.24762 14793 ft 350 kts 11°
2026-04-23 11:01 53.20334 10.25623 14280 ft 347 kts 11°
2026-04-23 11:01 53.22684 10.26468 13752 ft 345 kts 11°
2026-04-23 11:01 53.25024 10.27316 13253 ft 342 kts 11°
2026-04-23 11:02 53.27337 10.28161 12723 ft 340 kts 11°
2026-04-23 11:02 53.29642 10.29001 12210 ft 338 kts 11°
2026-04-23 11:02 53.31931 10.29840 11685 ft 336 kts 10°
2026-04-23 11:02 53.34206 10.30677 11180 ft 333 kts 10°
2026-04-23 11:03 53.36462 10.31505 10666 ft 331 kts 10°
2026-04-23 11:03 53.38709 10.32328 10182 ft 329 kts 10°
2026-04-23 11:03 53.40909 10.33135 9870 ft 320 kts 10°
2026-04-23 11:03 53.43065 10.33928 9516 ft 314 kts 10°
2026-04-23 11:04 53.45178 10.34708 9274 ft 306 kts 10°
2026-04-23 11:04 53.47224 10.35466 8979 ft 300 kts 11°
2026-04-23 11:04 53.49256 10.36224 8537 ft 298 kts 11°
2026-04-23 11:04 53.51275 10.36976 8101 ft 297 kts 10°
2026-04-23 11:05 53.53288 10.37727 7669 ft 295 kts 11°
2026-04-23 11:05 53.55283 10.38474 7256 ft 293 kts 11°
2026-04-23 11:05 53.57263 10.39213 6837 ft 291 kts 10°
2026-04-23 11:05 53.59237 10.39956 6412 ft 289 kts 10°
2026-04-23 11:06 53.63123 10.41417 5632 ft 282 kts 10°
2026-04-23 11:06 53.64980 10.42122 5476 ft 263 kts 11°
2026-04-23 11:06 53.66725 10.42796 4997 ft 256 kts 10°
2026-04-23 11:07 53.68464 10.42946 4662 ft 249 kts 346°
2026-04-23 11:07 53.69964 10.41701 4493 ft 236 kts 323°
2026-04-23 11:07 53.71220 10.39977 4245 ft 232 kts 320°
2026-04-23 11:07 53.72444 10.38208 3894 ft 233 kts 319°
2026-04-23 11:08 53.73679 10.36422 3521 ft 234 kts 319°
2026-04-23 11:08 53.74920 10.34647 3183 ft 233 kts 319°
2026-04-23 11:08 53.75882 10.32504 2972 ft 230 kts 290°
2026-04-23 11:08 53.76045 10.29820 2969 ft 231 kts 268°
2026-04-23 11:09 53.75881 10.27194 2969 ft 217 kts 265°
2026-04-23 11:09 53.75581 10.24792 2969 ft 204 kts 249°
2026-04-23 11:09 53.74801 10.22774 3016 ft 211 kts 233°
2026-04-23 11:09 53.73856 10.20847 2983 ft 213 kts 233°
2026-04-23 11:10 53.72910 10.18912 2844 ft 214 kts 233°
2026-04-23 11:10 53.71961 10.16980 2591 ft 212 kts 233°
2026-04-23 11:10 53.71020 10.15082 2320 ft 209 kts 233°
2026-04-23 11:10 53.70096 10.13188 2051 ft 209 kts 233°
2026-04-23 11:11 53.69177 10.11305 1767 ft 205 kts 233°
2026-04-23 11:11 53.68296 10.09512 1508 ft 192 kts 233°
2026-04-23 11:11 53.67474 10.07843 1280 ft 179 kts 233°
2026-04-23 11:11 53.66699 10.06265 1048 ft 176 kts 234°
2026-04-23 11:12 53.65937 10.04716 803 ft 161 kts 233°
2026-04-23 11:12 53.65214 10.03270 570 ft 159 kts 233°
2026-04-23 11:12 53.64555 10.01905 356 ft 142 kts 232°
2026-04-23 11:12 53.63910 10.00606 174 ft 148 kts 233°
2026-04-23 11:13 53.63261 9.99285 52 ft 138 kts 232°
2026-04-23 11:13 53.62750 9.98241 43 ft 87 kts 230°
2026-04-23 11:13 53.62530 9.97812 41 ft 19 kts 212°
2026-04-23 11:13 53.62433 9.97871 43 ft 14 kts 108°
2026-04-23 11:14 53.62437 9.97986 47 ft 7 kts 81°
2026-04-23 11:14 53.62470 9.98107 44 ft 18 kts 53°
2026-04-23 11:14 53.62524 9.98215 44 ft 0 kts 48°
2026-04-23 11:14 53.62534 9.98233 47 ft 8 kts 48°
2026-04-23 11:15 53.62599 9.98361 45 ft 17 kts 50°
2026-04-23 11:15 53.62672 9.98509 47 ft 16 kts 50°
2026-04-23 11:15 53.62740 9.98649 47 ft 15 kts 50°
2026-04-23 11:15 53.62811 9.98793 47 ft 18 kts 50°
2026-04-23 11:16 53.62899 9.98970 47 ft 20 kts 50°
2026-04-23 11:16 53.62986 9.99145 47 ft 19 kts 50°
2026-04-23 11:16 53.63068 9.99316 47 ft 18 kts 54°
2026-04-23 11:16 53.63139 9.99492 46 ft 18 kts 56°
2026-04-23 11:17 53.63213 9.99650 48 ft 16 kts 47°
2026-04-23 11:17 53.63287 9.99778 48 ft 15 kts 46°
2026-04-23 11:17 53.63355 9.99913 48 ft 15 kts 51°
2026-04-23 11:17 53.63420 10.00047 48 ft 14 kts 56°
2026-04-23 11:18 53.63413 10.00161 48 ft 9 kts 122°
2026-04-23 11:18 53.63376 10.00234 48 ft 7 kts 125°
2026-04-23 11:18 53.63372 10.00308 48 ft 6 kts 88°
2026-04-23 11:18 53.63373 10.00338 48 ft 0 kts 86°